Tracking 27172 objects as of 2-Apr-2023
HD Live streaming from Space Station
objects crossing your sky now

PSLV DEB

Track PSLV DEB now!
10-day predictions


NORAD ID: 35345
Int'l Code: 2001-049QD
Perigee: 630.9 km
Apogee: 706.9 km
Inclination: 98.2 °
Period: 98.0 minutes
Semi major axis: 7039 km
RCS: 0.004 m2 (small)
Launch date: October 22, 2001
Source: India (IND)
Launch site: SRIHARIKOTA (SRI)

Note: This is SATELLITE DEBRIS
Your satellite tracking list
Your tracking list is empty




NASA's NSSDC Master Catalog

Two Line Element Set (TLE):
1 35345U 01049QD  23090.24928379  .00018217  00000-0  29876-2 0  9995
2 35345  98.2230  83.7708 0053973 266.1880  93.3153 14.69777070540468
Source of the keplerian elements: AFSPC